Zurück zum Katalog

STARLINK-5665

AktivKommunikationVLEO
NORAD 55361·PAYLOAD·🇺🇸 United States

Gestartet Jan 26, 2023 von Cape Canaveral Space Force Station

Loading…

Nächste Überflüge (nächste 24 Stunden)

TLE

AktuellSource: CelesTrak SupGP

Epoche: Sep 15, 2026, 02:36 UTC

1 55361C 23013AG  26258.10881944  .00025232  00000+0  91355-3 0  2584
2 55361  43.0034 298.8622 0001793 279.3543  83.4778 15.27578138    11

Verfolge STARLINK-5665 in Echtzeit mit AllMySat

Download on the App Store